Dewpoint
38 41 42 43 44 43 42 41 40 40 41 40 39 39 39 40 40 40 40 40 40 40 40 40 40 39 39 39 39 38 38 37 37 36 36 36 36 37 38 38 38 39 39 38 39 40 40 40 40 39 39 39 39 39 39 39 39 39 39 39 40 40 40 41 41 41 41 41 41
39 40 41 40 41 42 42 41 41 41 41 41 41 41 40 41 40 40 40 40 40 40 40 40 39 39 39 38 38 37 37 37 36 36 36 36 36 37 38 38 38 39 39 39 40 40 40 40 40 39 39 39 39 39 39 38 38 39 40 39 40 40 40 41 41 41 41 41 41
41 41 41 41 42 42 41 41 40 40 40 40 41 41 41 41 41 41 40 40 40 40 40 39 38 38 38 38 38 37 37 37 36 36 36 36 36 36 37 37 38 38 38 39 40 40 40 40 39 39 39 39 39 39 40 40 40 40 40 40 40 40 40 41 41 41 41 41 41
42 42 42 41 42 41 41 40 40 40 40 41 41 41 41 41 41 41 41 40 40 39 39 38 36 36 36 37 37 37 37 36 36 36 36 36 36 36 36 37 37 38 39 40 40 40 40 40 40 40 40 40 40 40 40 41 41 40 40 40 40 41 41 41 41 41 41 41 41
42 42 42 42 42 42 41 41 41 41 41 41 42 42 42 41 41 40 40 39 38 38 38 37 35 34 35 36 36 36 36 36 35 36 36 36 36 36 37 37 38 39 40 41 41 41 41 41 41 41 41 41 41 41 42 42 42 42 42 42 43 43 44 45 45 44 42 41 41
41 41 41 42 42 42 42 41 41 42 42 42 42 41 41 41 41 40 39 38 38 39 38 36 35 34 35 36 36 36 36 36 36 36 36 36 36 37 38 38 39 41 41 41 41 41 41 41 42 42 43 43 42 42 44 44 44 45 45 45 45 45 46 46 46 45 44 41 41
38 38 38 39 39 40 40 41 41 41 42 42 41 41 41 40 40 39 39 39 38 38 36 34 35 35 35 36 35 35 35 35 35 35 35 36 36 37 38 40 41 41 41 40 41 41 41 41 42 43 43 43 44 45 45 46 46 45 45 45 45 45 45 45 45 45 44 42 41
36 36 36 35 35 36 37 39 40 40 41 41 40 40 40 40 39 39 39 38 37 36 35 34 35 36 35 35 34 33 34 34 34 34 35 36 37 38 39 40 40 39 39 39 40 40 40 41 42 43 43 44 45 45 45 45 45 44 44 43 44 45 45 45 45 45 44 42 41
36 36 36 36 36 36 37 37 39 39 39 39 39 40 41 41 40 39 38 37 36 35 34 34 34 34 34 34 32 32 32 31 32 34 35 37 38 38 38 38 37 37 38 38 39 39 39 41 41 42 42 43 43 44 44 44 44 43 43 43 43 44 45 45 44 44 43 42 41
36 35 35 36 37 37 36 37 37 38 38 38 38 39 40 38 38 38 37 36 35 35 35 34 34 33 33 33 32 31 31 32 32 33 34 36 35 35 35 36 36 36 36 37 38 38 39 40 39 39 39 40 41 41 41 43 43 42 42 42 42 43 43 43 43 43 43 42 41
35 35 34 35 36 35 34 36 36 36 36 36 36 36 37 37 38 37 35 33 35 35 34 32 32 32 31 31 31 31 31 32 33 33 33 33 34 34 35 35 35 36 36 36 36 37 37 37 37 37 37 38 38 39 40 40 40 40 39 39 40 40 40 41 42 42 42 42 41
34 34 34 33 33 33 33 34 34 34 34 35 34 34 35 36 36 34 33 34 35 34 32 32 32 32 31 31 31 32 32 32 32 32 33 33 34 34 35 35 35 35 35 35 36 36 36 36 35 36 36 36 36 36 36 36 36 36 36 36 37 37 37 37 38 40 41 42 41
34 33 33 33 33 33 33 33 33 33 33 34 33 33 33 33 33 32 32 34 34 32 32 32 32 32 32 32 32 32 32 32 32 32 32 33 33 34 34 34 34 34 34 34 35 35 35 35 35 35 35 35 36 36 36 36 35 35 36 36 36 36 36 36 36 37 38 39 40
34 33 33 33 33 33 33 33 33 33 34 34 34 33 33 32 32 32 32 33 32 32 32 32 32 33 32 32 32 32 33 32 32 32 32 32 33 33 34 34 34 33 33 34 34 35 34 34 34 34 34 34 35 35 35 35 35 36 36 36 36 36 36 36 36 36 36 36 37
34 33 33 33 33 32 32 32 33 33 34 34 34 33 32 32 31 32 32 32 32 32 33 33 33 32 32 32 32 32 32 32 32 32 32 32 33 33 33 33 33 33 33 33 34 34 34 34 34 35 35 34 35 35 35 36 36 36 36 36 36 36 36 36 36 36 36 36 36
33 33 33 33 32 32 32 32 33 34 34 34 34 33 32 31 31 32 32 32 32 33 33 33 32 32 32 32 32 32 32 32 32 32 32 32 33 33 33 33 33 33 33 33 33 33 34 34 36 36 36 36 36 36 36 36 37 37 37 37 37 37 37 36 36 36 36 36 36
33 33 32 32 32 32 32 32 33 34 34 34 33 32 32 32 32 32 32 32 33 34 33 33 32 32 32 32 32 32 32 32 32 32 32 33 33 33 33 33 32 32 32 32 32 32 33 34 36 37 37 37 37 37 37 37 37 37 37 37 37 37 36 36 36 36 36 36 36
32 32 32 31 31 31 32 33 33 34 34 33 32 32 32 32 32 32 32 33 34 34 33 33 32 32 32 32 32 33 32 32 32 32 33 33 33 33 32 31 30 30 30 31 31 32 32 33 35 36 37 36 36 36 36 36 36 36 36 36 36 36 36 35 36 36 36 36 36
30 30 30 30 30 31 32 33 33 33 33 32 32 32 32 32 32 32 33 33 34 34 34 32 32 32 32 32 32 32 32 32 32 33 32 32 32 30 29 28 28 28 29 30 30 30 31 32 33 34 34 33 33 34 34 33 32 32 32 33 33 33 33 33 34 34 35 35 35
27 27 28 28 30 32 32 33 33 32 32 32 32 32 32 32 32 32 32 32 34 34 34 32 31 31 32 32 32 32 32 32 32 32 31 30 29 28 27 27 27 28 29 29 30 30 30 30 32 32 31 32 31 31 31 30 30 30 30 30 30 31 31 31 31 31 32 32 33
26 26 27 28 31 32 33 32 32 32 31 31 31 31 31 31 31 32 32 32 34 33 32 32 31 31 31 32 32 32 32 31 31 31 30 29 28 28 27 28 28 29 29 29 30 30 30 30 30 30 30 31 30 29 29 28 28 28 28 28 28 28 28 28 28 29 29 30 31
25 26 27 28 31 32 33 33 32 31 31 31 31 30 30 30 30 31 32 33 33 33 32 32 32 32 32 32 31 30 30 30 31 31 30 30 29 29 29 29 29 30 30 29 30 30 30 32 31 30 30 28 27 27 27 27 27 27 27 27 27 27 27 27 27 27 27 28 29
25 26 27 29 32 33 34 33 32 32 31 31 30 29 29 28 29 30 32 32 32 32 32 32 33 32 31 31 30 29 29 30 31 31 31 31 31 31 31 30 30 30 29 29 30 31 31 32 30 28 27 25 25 25 26 26 26 26 26 26 26 26 26 26 26 26 26 27 28
25 26 28 32 34 35 34 33 32 31 31 30 29 28 27 27 28 29 30 30 30 31 31 32 32 31 30 30 30 30 30 30 30 31 31 31 31 31 30 30 29 29 29 32 35 35 33 30 28 26 24 23 24 24 25 25 25 25 25 25 25 25 25 25 25 25 26 26 27
26 28 31 35 36 35 34 32 32 31 29 28 27 27 26 27 27 28 29 30 30 30 29 28 28 30 31 31 31 31 31 31 30 30 30 30 30 30 29 28 27 28 29 30 35 36 34 32 29 26 24 23 23 24 24 25 24 24 24 24 24 24 24 25 24 25 25 24 25
29 32 35 36 36 34 33 33 32 31 29 27 26 25 25 25 26 27 28 27 27 27 27 27 28 31 32 30 30 30 30 29 29 29 28 27 27 27 26 25 26 27 28 30 34 35 35 34 32 29 27 25 24 24 23 23 23 23 23 23 23 23 23 23 23 23 24 24 23
34 36 36 35 34 34 33 33 33 31 29 26 25 25 24 25 25 25 25 25 25 27 28 28 30 32 32 29 28 28 28 27 28 27 27 26 25 25 25 24 25 27 29 33 35 36 34 33 32 30 29 27 25 24 23 23 23 22 22 22 22 22 22 21 21 21 21 23 21
36 35 33 33 33 34 35 35 32 30 27 26 26 26 26 26 25 25 25 25 26 27 28 29 30 29 28 27 27 27 27 27 27 27 26 25 25 25 24 23 24 27 31 35 35 33 32 31 30 29 29 28 26 24 23 22 21 20 19 19 19 19 18 18 18 18 18 19 19
34 33 33 33 34 34 33 32 29 27 27 27 27 28 28 28 28 27 27 27 27 28 29 29 29 28 28 27 27 26 26 25 25 25 25 26 25 25 24 23 23 26 30 35 32 31 30 29 29 28 28 27 25 23 21 19 19 18 18 17 17 17 16 17 17 18 18 18 18
32 32 32 32 32 31 30 28 28 28 29 29 29 30 30 29 29 28 27 27 27 28 29 28 29 29 29 27 26 25 24 23 24 24 24 24 24 23 23 23 23 27 30 32 30 29 28 28 27 27 27 26 25 23 20 18 18 17 16 16 16 16 16 17 17 17 18 18 18
32 31 31 31 30 29 29 29 29 30 30 31 30 30 29 28 27 27 27 28 28 28 28 28 28 28 27 25 24 23 22 22 23 23 23 24 23 23 22 22 22 26 29 30 29 28 27 26 25 24 25 26 24 23 20 19 18 17 17 16 16 17 17 18 18 18 18 18 18
32 31 30 29 29 29 30 30 30 31 31 31 29 28 27 27 28 28 29 29 29 28 27 26 26 26 24 23 23 22 21 22 22 23 23 23 23 22 22 23 22 25 28 28 28 27 26 25 24 23 24 26 25 23 21 20 18 18 17 17 17 17 18 18 18 18 18 18 18
32 31 30 30 30 30 31 31 31 31 30 29 28 27 27 27 28 28 28 28 27 27 25 23 24 23 22 22 22 21 22 23 23 23 23 23 22 22 22 22 20 24 28 28 27 26 25 24 24 24 25 27 25 23 21 19 18 18 18 18 18 18 18 18 18 18 19 19 20
32 32 31 30 30 31 31 30 30 30 30 28 28 28 28 28 28 27 26 26 25 24 23 22 22 21 21 21 22 22 23 24 24 24 23 23 22 22 22 22 20 23 28 28 27 26 25 24 24 25 25 27 24 22 20 19 18 18 18 18 18 19 19 20 20 20 20 20 21
33 32 32 32 31 31 29 28 27 28 29 28 29 29 30 29 27 26 24 23 23 22 22 22 21 22 22 21 22 23 24 25 25 25 24 24 23 23 23 22 21 24 28 28 27 26 26 25 25 25 25 25 23 21 19 18 18 18 18 18 19 20 21 21 21 21 21 21 22
34 34 34 33 31 29 28 27 26 27 28 29 30 29 29 27 25 23 23 22 21 21 20 21 21 21 21 21 23 23 23 24 24 25 25 24 24 23 23 22 22 24 27 29 28 27 27 26 25 24 23 23 22 20 19 18 18 18 19 19 20 20 21 21 21 21 22 22 22
34 34 34 33 30 28 27 27 28 28 28 30 29 28 27 25 23 22 22 21 20 20 20 20 20 20 20 21 22 22 23 23 24 25 25 25 24 24 23 22 23 24 26 29 29 28 27 26 24 23 23 22 21 19 19 18 19 19 19 19 19 20 20 20 21 21 21 22 22
32 32 32 31 28 27 27 28 29 29 29 28 27 26 24 23 22 21 21 21 20 20 19 19 19 20 20 21 22 23 23 23 24 25 25 25 24 23 23 23 23 24 26 28 29 29 28 25 23 23 22 22 20 19 19 19 19 19 19 19 18 19 19 20 20 21 21 22 23
32 29 27 27 27 27 27 27 28 29 28 27 25 23 22 22 21 21 21 22 21 20 19 19 19 20 21 22 21 23 23 23 24 25 26 25 24 24 24 24 24 25 26 28 29 29 28 25 23 23 23 23 21 20 19 19 19 19 19 18 18 18 18 19 19 20 21 22 23
32 28 27 26 27 27 27 26 26 27 27 25 23 22 22 21 21 22 22 22 21 20 20 19 19 19 20 21 21 22 23 23 24 25 25 25 25 26 26 25 25 26 26 28 29 29 28 26 24 23 23 23 21 21 20 19 19 19 18 18 18 18 18 18 18 19 20 21 22
32 29 28 28 28 27 26 25 24 25 25 25 23 23 22 22 22 22 22 22 21 20 19 19 19 19 20 21 21 22 23 23 23 24 25 25 25 26 27 26 26 26 26 27 28 29 28 27 26 24 23 23 22 21 20 19 19 19 19 18 18 17 17 17 18 18 19 19 20